{"data":{"norad_id":43689,"intl_designator":"2018-087A","name":"METOP-C","alt_names":[],"object_type":"PAYLOAD","status":"ACTIVE","operator":null,"country":"EUME","launch_date":"2018-11-07","launch_site_code":"FRGUI","launch_vehicle":null,"mission":null,"orbit_class":"UNKNOWN","rcs_meters":null,"size_class":null,"mass_kg":null,"dimensions":null,"purposes":["earth_obs"],"wikipedia_slug":null,"has_3d_model":false,"image_url":null,"decayed_at":null,"tle_current":{"epoch":"2026-05-25T02:55:14.954304Z","epoch_age_seconds":57747,"freshness":"FRESH","line1":"1 43689U 18087A   26145.12170086  .00000082  00000+0  57139-4 0  9995","line2":"2 43689  98.6655 205.1453 0000773 151.2544 208.8676 14.21504906391552","mean_motion":14.21504906,"eccentricity":7.73e-5,"inclination_deg":98.6655,"raan_deg":205.1453,"arg_perigee_deg":151.2544,"mean_anomaly_deg":208.8676,"bstar":5.7139e-5,"rev_number":39155,"period_min":101.30109251976,"perigee_km":819.71137395895,"apogee_km":820.82424734268,"semimajor_km":7198.4048106508,"source":"CELESTRAK","updated_at":"2026-05-25T13:38:12.249945Z"}}}